Location: Newark
(35.8833°N, 14.5000°E)
Time: 18:51:02
(UTC+00:00)

Altair - Pass Details

Date: 25 November 2019
Orbit: 1502 x 1682 km, 47.2° (Epoch: 07 December)

Event Time Altitude Azimuth Distance (km) Brightness Sun altitude
Rises 20:58:27 0° 177° (S) 4,733 - -61.5°
Reaches altitude 10° 21:03:15 10° 156° (SSE) 3,717 - -62.4°
Maximum altitude 21:08:10 16° 124° (SE) 3,269 - -63.3°
Drops below altitude 10° 21:13:01 10° 91° (E) 3,670 - -64.2°
Sets 21:17:39 0° 71° (ENE) 4,640 - -65.0°
